Time,TemperatureF,DewpointF,PressureIn,WindDirection,WindDirectionDegrees,WindSpeedMPH,WindSpeedGustMPH,Humidity,HourlyPrecipIn,Conditions,Clouds,dailyrainin,SoftwareType,DateUTC
2013-09-16 00:05:00,76.7,75.0,30.00,WNW,295,0.0,0.0,94,0.00,,,0.00,weatherlink.com 1.10,2013-09-16 04:05:00,
2013-09-16 00:20:00,76.6,75.0,30.00,SW,226,0.0,0.0,94,0.00,,,0.00,weatherlink.com 1.10,2013-09-16 04:20:00,
2013-09-16 00:35:00,76.4,75.0,30.00,South,188,0.0,0.0,95,0.00,,,0.00,weatherlink.com 1.10,2013-09-16 04:35:00,
2013-09-16 00:50:00,76.1,75.0,30.01,ENE,77,0.0,0.0,96,0.00,,,0.00,weatherlink.com 1.10,2013-09-16 04:50:00,
2013-09-16 01:05:00,75.9,75.0,30.02,ENE,72,2.0,2.0,96,0.00,,,0.00,weatherlink.com 1.10,2013-09-16 05:05:00,
2013-09-16 01:20:00,75.9,75.0,30.02,NE,51,4.0,6.0,97,0.00,,,0.00,weatherlink.com 1.10,2013-09-16 05:20:00,
2013-09-16 01:35:00,76.2,75.0,30.02,ENE,63,4.0,8.0,97,0.00,,,0.00,weatherlink.com 1.10,2013-09-16 05:35:00,
2013-09-16 01:50:00,76.3,74.0,30.02,ENE,70,3.0,10.0,93,0.00,,,0.00,weatherlink.com 1.10,2013-09-16 05:50:00,
2013-09-16 02:05:00,76.1,74.0,30.02,ENE,65,4.0,6.0,92,0.00,,,0.00,weatherlink.com 1.10,2013-09-16 06:05:00,
2013-09-16 02:20:00,75.7,73.0,30.02,ENE,64,2.0,3.0,91,0.00,,,0.00,weatherlink.com 1.10,2013-09-16 06:20:00,
2013-09-16 02:35:00,75.3,73.0,30.01,ENE,68,4.0,6.0,91,0.00,,,0.00,weatherlink.com 1.10,2013-09-16 06:35:00,
2013-09-16 02:50:00,75.1,72.0,30.00,ENE,70,2.0,4.0,91,0.00,,,0.00,weatherlink.com 1.10,2013-09-16 06:50:00,
2013-09-16 03:05:00,74.9,73.0,30.00,ENE,77,1.0,3.0,92,0.00,,,0.00,weatherlink.com 1.10,2013-09-16 07:05:00,
2013-09-16 03:20:00,74.6,73.0,30.00,NE,54,2.0,3.0,93,0.00,,,0.00,weatherlink.com 1.10,2013-09-16 07:20:00,
2013-09-16 03:35:00,74.4,72.0,29.99,NE,39,3.0,5.0,93,0.00,,,0.00,weatherlink.com 1.10,2013-09-16 07:35:00,
2013-09-16 03:50:00,74.3,73.0,29.99,NE,44,4.0,7.0,94,0.00,,,0.00,weatherlink.com 1.10,2013-09-16 07:50:00,
2013-09-16 04:05:00,74.4,73.0,29.99,NE,39,5.0,7.0,94,0.00,,,0.00,weatherlink.com 1.10,2013-09-16 08:05:00,
2013-09-16 04:20:00,74.7,73.0,29.99,ENE,65,5.0,8.0,95,0.00,,,0.00,weatherlink.com 1.10,2013-09-16 08:20:00,
2013-09-16 04:35:00,74.8,74.0,29.99,NNE,30,4.0,8.0,96,0.00,,,0.00,weatherlink.com 1.10,2013-09-16 08:35:00,
2013-09-16 04:50:00,74.9,74.0,29.99,ENE,68,2.0,8.0,97,0.00,,,0.00,weatherlink.com 1.10,2013-09-16 08:50:00,
2013-09-16 05:05:00,74.9,74.0,29.98,ENE,58,3.0,6.0,97,0.00,,,0.00,weatherlink.com 1.10,2013-09-16 09:05:00,
2013-09-16 05:20:00,74.8,74.0,29.98,ENE,63,2.0,5.0,97,0.00,,,0.00,weatherlink.com 1.10,2013-09-16 09:20:00,
2013-09-16 05:35:00,74.6,74.0,29.98,ENE,67,1.0,3.0,97,0.00,,,0.00,weatherlink.com 1.10,2013-09-16 09:35:00,
2013-09-16 05:50:00,74.4,74.0,29.99,ENE,60,3.0,5.0,98,0.00,,,0.00,weatherlink.com 1.10,2013-09-16 09:50:00,
2013-09-16 06:05:00,74.3,74.0,29.99,NE,41,4.0,6.0,98,0.00,,,0.00,weatherlink.com 1.10,2013-09-16 10:05:00,
2013-09-16 06:20:00,74.2,74.0,30.00,NE,51,5.0,5.0,98,0.00,,,0.00,weatherlink.com 1.10,2013-09-16 10:20:00,
2013-09-16 06:35:00,74.1,74.0,30.00,ENE,57,6.0,6.0,98,0.00,,,0.00,weatherlink.com 1.10,2013-09-16 10:35:00,
2013-09-16 06:50:00,74.0,73.0,30.00,NE,43,4.0,6.0,97,0.00,,,0.00,weatherlink.com 1.10,2013-09-16 10:50:00,
2013-09-16 07:05:00,74.1,73.0,30.00,ENE,65,3.0,6.0,97,0.00,,,0.00,weatherlink.com 1.10,2013-09-16 11:05:00,
2013-09-16 07:20:00,74.1,73.0,30.01,NE,51,6.0,8.0,97,0.00,,,0.00,weatherlink.com 1.10,2013-09-16 11:20:00,
2013-09-16 07:35:00,74.3,73.0,30.01,ENE,57,3.0,8.0,97,0.00,,,0.00,weatherlink.com 1.10,2013-09-16 11:35:00,
2013-09-16 07:50:00,74.6,74.0,30.01,NE,46,4.0,8.0,97,0.00,,,0.00,weatherlink.com 1.10,2013-09-16 11:50:00,
2013-09-16 08:05:00,75.0,74.0,30.01,ENE,58,4.0,7.0,96,0.00,,,0.00,weatherlink.com 1.10,2013-09-16 12:05:00,
2013-09-16 08:20:00,75.7,75.0,30.02,North,4,6.0,8.0,96,0.00,,,0.00,weatherlink.com 1.10,2013-09-16 12:20:00,
2013-09-16 08:35:00,76.9,75.0,30.02,NE,51,6.0,8.0,95,0.00,,,0.00,weatherlink.com 1.10,2013-09-16 12:35:00,
2013-09-16 08:50:00,78.9,77.0,30.02,NE,50,4.0,8.0,92,0.00,,,0.00,weatherlink.com 1.10,2013-09-16 12:50:00,
2013-09-16 09:05:00,80.5,77.0,30.02,NE,39,6.0,8.0,90,0.00,,,0.00,weatherlink.com 1.10,2013-09-16 13:05:00,
2013-09-16 09:20:00,81.0,78.0,30.02,NNE,28,5.0,10.0,90,0.00,,,0.00,weatherlink.com 1.10,2013-09-16 13:20:00,
2013-09-16 09:51:00,82.2,78.0,30.02,NE,49,9.0,12.0,87,0.00,,,0.00,weatherlink.com 1.10,2013-09-16 13:51:00,
2013-09-16 10:06:00,82.8,79.0,30.03,ENE,60,5.0,12.0,87,0.00,,,0.00,weatherlink.com 1.10,2013-09-16 14:06:00,
2013-09-16 10:21:00,83.3,79.0,30.03,NE,55,9.0,12.0,86,0.00,,,0.00,weatherlink.com 1.10,2013-09-16 14:21:00,
2013-09-16 10:36:00,84.5,79.0,30.03,NE,51,11.0,14.0,83,0.00,,,0.00,weatherlink.com 1.10,2013-09-16 14:36:00,
2013-09-16 10:51:00,85.2,78.0,30.03,East,90,13.0,14.0,79,0.00,,,0.00,weatherlink.com 1.10,2013-09-16 14:51:00,
2013-09-16 11:06:00,84.9,78.0,30.03,NE,49,6.0,13.0,80,0.00,,,0.00,weatherlink.com 1.10,2013-09-16 15:06:00,
2013-09-16 11:21:00,85.7,78.0,30.02,East,83,7.0,12.0,78,0.00,,,0.00,weatherlink.com 1.10,2013-09-16 15:21:00,
2013-09-16 11:36:00,85.8,78.0,30.02,NE,45,8.0,11.0,78,0.00,,,0.00,weatherlink.com 1.10,2013-09-16 15:36:00,
2013-09-16 11:51:00,85.8,78.0,30.02,NE,54,4.0,11.0,78,0.00,,,0.00,weatherlink.com 1.10,2013-09-16 15:51:00,
2013-09-16 12:06:00,80.0,73.0,30.04,NE,50,12.0,28.0,80,0.00,,,0.00,weatherlink.com 1.10,2013-09-16 16:06:00,
2013-09-16 12:21:00,74.6,72.0,30.03,NE,43,18.0,18.0,91,0.02,,,0.02,weatherlink.com 1.10,2013-09-16 16:21:00,
2013-09-16 12:36:00,74.8,72.0,30.02,NNE,26,6.0,11.0,90,0.03,,,0.03,weatherlink.com 1.10,2013-09-16 16:36:00,
2013-09-16 12:51:00,75.7,72.0,30.00,NNE,19,8.0,9.0,89,0.03,,,0.03,weatherlink.com 1.10,2013-09-16 16:51:00,
2013-09-16 13:06:00,77.7,73.0,30.00,NE,44,7.0,10.0,86,0.04,,,0.04,weatherlink.com 1.10,2013-09-16 17:06:00,
2013-09-16 13:21:00,79.1,75.0,30.00,NE,53,4.0,11.0,87,0.02,,,0.04,weatherlink.com 1.10,2013-09-16 17:21:00,
2013-09-16 13:36:00,79.9,77.0,30.00,ENE,70,7.0,16.0,89,0.01,,,0.04,weatherlink.com 1.10,2013-09-16 17:36:00,
2013-09-16 13:51:00,80.1,75.0,30.02,East,95,17.0,18.0,84,0.01,,,0.04,weatherlink.com 1.10,2013-09-16 17:51:00,
2013-09-16 14:06:00,77.6,74.0,30.02,NE,44,10.0,19.0,88,0.00,,,0.04,weatherlink.com 1.10,2013-09-16 18:06:00,
2013-09-16 14:21:00,76.4,73.0,30.03,SE,138,9.0,16.0,89,0.00,,,0.04,weatherlink.com 1.10,2013-09-16 18:21:00,
2013-09-16 14:36:00,75.7,73.0,30.03,East,96,4.0,11.0,92,0.00,,,0.04,weatherlink.com 1.10,2013-09-16 18:36:00,
2013-09-16 14:51:00,75.4,74.0,30.03,ENE,65,6.0,8.0,94,0.00,,,0.04,weatherlink.com 1.10,2013-09-16 18:51:00,
2013-09-16 15:06:00,74.9,73.0,30.03,ENE,63,6.0,15.0,93,0.00,,,0.04,weatherlink.com 1.10,2013-09-16 19:06:00,
2013-09-16 15:21:00,74.1,72.0,30.00,ENE,75,7.0,10.0,93,0.02,,,0.06,weatherlink.com 1.10,2013-09-16 19:21:00,
2013-09-16 15:36:00,74.0,73.0,29.98,ENE,66,5.0,7.0,95,0.04,,,0.08,weatherlink.com 1.10,2013-09-16 19:36:00,
2013-09-16 15:51:00,74.0,73.0,29.98,SE,142,3.0,7.0,96,0.05,,,0.09,weatherlink.com 1.10,2013-09-16 19:51:00,
2013-09-16 16:03:00,-999.0,-99.9,0.00,North,-999,-999.0,-999.0,-999,0.00,,,0.00,weatherlink.com 1.10,2013-09-16 20:03:00,
2013-09-16 16:16:00,74.3,73.0,29.98,East,80,4.0,7.0,96,0.00,,,0.00,weatherlink.com 1.10,2013-09-16 20:16:00,
2013-09-16 16:32:00,74.6,74.0,29.97,ENE,70,3.0,4.0,97,0.00,,,0.00,weatherlink.com 1.10,2013-09-16 20:32:00,
2013-09-16 16:47:00,74.8,74.0,29.97,ENE,65,4.0,6.0,96,0.01,,,0.01,weatherlink.com 1.10,2013-09-16 20:47:00,
2013-09-16 17:02:00,74.6,73.0,29.96,ENE,68,4.0,8.0,95,0.01,,,0.01,weatherlink.com 1.10,2013-09-16 21:02:00,
2013-09-16 17:17:00,74.6,73.0,29.95,ENE,70,5.0,7.0,94,0.01,,,0.01,weatherlink.com 1.10,2013-09-16 21:17:00,
2013-09-16 17:32:00,74.6,73.0,29.95,ENE,58,5.0,7.0,94,0.01,,,0.01,weatherlink.com 1.10,2013-09-16 21:32:00,
2013-09-16 17:47:00,75.0,73.0,29.96,ENE,60,2.0,6.0,94,0.00,,,0.01,weatherlink.com 1.10,2013-09-16 21:47:00,
2013-09-16 18:02:00,75.1,73.0,29.96,ENE,58,7.0,9.0,94,0.00,,,0.01,weatherlink.com 1.10,2013-09-16 22:02:00,
2013-09-16 18:17:00,75.3,74.0,29.97,NE,47,6.0,7.0,94,0.00,,,0.01,weatherlink.com 1.10,2013-09-16 22:17:00,
2013-09-16 18:32:00,75.4,74.0,29.97,NE,53,2.0,8.0,95,0.00,,,0.01,weatherlink.com 1.10,2013-09-16 22:32:00,
2013-09-16 18:47:00,75.3,74.0,29.96,ENE,65,3.0,6.0,94,0.00,,,0.01,weatherlink.com 1.10,2013-09-16 22:47:00,
2013-09-16 19:02:00,75.1,73.0,29.96,ENE,66,3.0,5.0,94,0.00,,,0.01,weatherlink.com 1.10,2013-09-16 23:02:00,
2013-09-16 19:17:00,74.9,73.0,29.96,ENE,57,6.0,6.0,95,0.00,,,0.01,weatherlink.com 1.10,2013-09-16 23:17:00,
2013-09-16 19:32:00,74.8,73.0,29.97,NE,43,3.0,5.0,95,0.00,,,0.01,weatherlink.com 1.10,2013-09-16 23:32:00,
2013-09-16 19:47:00,74.7,74.0,29.98,ENE,65,2.0,4.0,96,0.00,,,0.01,weatherlink.com 1.10,2013-09-16 23:47:00,
2013-09-16 20:02:00,74.7,74.0,29.98,NNE,25,5.0,5.0,96,0.00,,,0.01,weatherlink.com 1.10,2013-09-17 00:02:00,
2013-09-16 20:17:00,74.8,74.0,29.99,NE,53,2.0,4.0,97,0.00,,,0.01,weatherlink.com 1.10,2013-09-17 00:17:00,
2013-09-16 20:32:00,74.8,74.0,29.99,ENE,70,2.0,3.0,97,0.00,,,0.01,weatherlink.com 1.10,2013-09-17 00:32:00,
2013-09-16 20:47:00,74.7,74.0,29.99,ENE,77,2.0,3.0,97,0.00,,,0.01,weatherlink.com 1.10,2013-09-17 00:47:00,
2013-09-16 21:02:00,74.6,74.0,29.99,ENE,64,2.0,3.0,97,0.00,,,0.01,weatherlink.com 1.10,2013-09-17 01:02:00,
2013-09-16 21:17:00,74.5,74.0,29.99,ENE,65,2.0,4.0,97,0.00,,,0.01,weatherlink.com 1.10,2013-09-17 01:17:00,
2013-09-16 21:32:00,74.4,74.0,30.00,ENE,58,2.0,4.0,97,0.00,,,0.01,weatherlink.com 1.10,2013-09-17 01:32:00,
2013-09-16 21:47:00,74.3,74.0,30.00,ENE,65,0.0,5.0,98,0.00,,,0.01,weatherlink.com 1.10,2013-09-17 01:47:00,
2013-09-16 22:02:00,74.3,74.0,30.00,ENE,63,2.0,4.0,98,0.00,,,0.01,weatherlink.com 1.10,2013-09-17 02:02:00,
2013-09-16 22:17:00,74.2,74.0,30.00,ENE,74,0.0,3.0,98,0.00,,,0.01,weatherlink.com 1.10,2013-09-17 02:17:00,
2013-09-16 22:32:00,74.0,73.0,30.00,ENE,73,1.0,1.0,98,0.00,,,0.01,weatherlink.com 1.10,2013-09-17 02:32:00,
2013-09-16 22:47:00,73.9,73.0,30.00,NE,49,2.0,4.0,98,0.00,,,0.01,weatherlink.com 1.10,2013-09-17 02:47:00,
2013-09-16 23:02:00,73.8,73.0,30.00,NE,39,2.0,4.0,98,0.00,,,0.01,weatherlink.com 1.10,2013-09-17 03:02:00,
2013-09-16 23:17:00,73.7,73.0,30.00,North,7,0.0,2.0,98,0.00,,,0.01,weatherlink.com 1.10,2013-09-17 03:17:00,
2013-09-16 23:32:00,73.7,73.0,30.01,NE,48,0.0,0.0,99,0.00,,,0.01,weatherlink.com 1.10,2013-09-17 03:32:00,
2013-09-16 23:47:00,73.7,73.0,30.01,NE,43,2.0,3.0,99,0.01,,,0.02,weatherlink.com 1.10,2013-09-17 03:47:00,